Погода Ордынское

Погода Ордынское : погода сейчас, прогноз погоды и архив. Всё, что Вы хотите узнать о погоде Ордынское!

Хотите узнать прогноз погоды Ордынское? Тогда Вам сюда: Погода Ордынское

Поиск расширенной информации на нашем сайте:

Другие новости

Новости СМИ2

Главная страница сайта

Новости сайта

03.07.2017

Напоминаем, что на нашем специализированном сайте Метеоцентр.Азия вы можете получить высокодетализированные автоматические прогнозы погоды по пунктам России, СНГ и мира в авиационном формате (включающие направление и скорость ветра, видимость, явления погоды, количество и форму облачности, нижнюю и верхнюю границу облачности).

Рекомендуем: Подробное описание деаэратор у нас на сайте.

Погода Ордынское - сегодня

Время (UTC), дата Ветер
(°,м/с) 
Видим.   Явления Облачность Т
(°С)
Тd
(°С)
f(%) Тe
(°С)
Pmin
(гПа)
dP
(гПа)
Po
(мм)
O2
(г/м3)
Тmin Tmax R s Состояние
почвы
21 19.09.17 270 (З) 20000 м    8/8 600 м кучево-дожд. 
[Cb calv]
+7.8 +5.8 87 +8  1019.2  0.9  752  294           
00 20.09.17 260 (З) 20000 м    10/10 600 м кучево-дожд. 
[Cb calv]
+7.1 +5.3 88 +7  1021  1.8  754  295  +7.1    0.3    влажная 
03 20.09.17 280 (З) 20000 м    10/10 600 м кучево-дожд. 
[Cb calv]
+7.7 +4.9 82 +8  1022.3  1.3  755  295  +6.9         
06 20.09.17 240 (ЮЗ) 20000 м    10/10 600 м кучево-дожд. 
[Cb calv]
+9.1 +4.1 71 +9  1022.3  0.1  755  294           
09 20.09.17 220 (ЮЗ) 20000 м    10/10 600 м кучево-дожд. 
[Cb calv]
+9.2 +5 75 +9  1021.9  -0.4  754  293           
12 20.09.17 тихо ()   20000 м    10/5 600 м кучево-дожд., средняя, верхняя 
[Cb calv|Ac As|Ci sp]
+9.6 +5 73 +10  1021  -0.8  754  293    +9.9       
15 20.09.17 180 (Ю) 20000 м    10/6 600 м кучево-дожд., средняя 
[Cb calv|Ac As]
+9.6 +4.6 71 +10  1018.7  -2.4  752  292           
18 20.09.17 130 (ЮВ) 10 км  слаб. ливневой дождь  10/10 600 м кучево-дожд. 
[Cb calv]
+8 +6.1 88 +8  1015.5  -3.2  749  292           
21 20.09.17 160 (Ю) 20000 м  {ливн. осадки}  10/10 600 м кучево-дожд. 
[Cb calv]
+8.3 +6.5 88 +8  1010.8  -4.6  746  291           
00 21.09.17 160 (Ю) 20000 м  {ливн. осадки}  10/10 600 м кучево-дожд. 
[Cb calv]
+8.8 +7.2 90 +9  1007.6  -3.1  744  289  +8      влажная 
03 21.09.17 230 (ЮЗ) 20000 м  {ливн. осадки}  10/10 600 м кучево-дожд. 
[Cb calv]
+10.6 +8.5 87 +10  1005.8  -1.7  742  286           
06 21.09.17 280 (З) 20000 м  {ливн. осадки}  10/8 600 м кучево-дожд., средняя 
[Cb calv|Ac As]
+12.9 +9.2 78 +12  1005.7  0.1  743  284           
09 21.09.17 260 (З) 3{10}  20000 м    10/10 600 м кучево-дожд. 
[Cb calv]
+13.7 +7.8 67 +14  1005.3  -0.4  742  283           
12 21.09.17 280 (З) 20000 м  {ливн. осадки}  10/8 600 м кучево-дожд., средняя 
[Cb calv|Ac cuf]
+10.7 +8.1 84 +10  1006.7  1.2  743  287    +14.2     
15 21.09.17 290 (З) 2{10}  20000 м    10/10 600 м кучево-дожд. 
[Cb calv]
+8.3 +5.7 84 +8  1008.2  1.4  744  290           
18 21.09.17 300 (СЗ) 20000 м    10/8 600 м кучево-дожд., средняя 
[Cb calv|Ac As]
+7.5 +5.4 87 +7  1008.9  0.6  745  291           
21 21.09.17 300 (СЗ) 20000 м    10/10 600 м кучево-дожд. 
[Cb calv]
+7.2 +5.1 86 +7  1009.9  745  292           
00 22.09.17 300 (СЗ) 20000 м    10/10 600 м кучево-дожд. 
[Cb calv]
+6.9 +4.7 86 +7  1011  1.1  746  292  +6.9        влажная 
03 22.09.17 300 (СЗ) 20000 м  {ливн. осадки}  10/10 600 м кучево-дожд. 
[Cb calv]
+7.7 +4.7 81 +8  1012.4  1.4  747  292  +6.7         
06 22.09.17 320 (СЗ) 20000 м  {ливн. осадки}  10/10 1000 м кучево-дожд. 
[Cb calv]
+8.1 +4.5 78 +7  1013.1  0.7  748  292           
09 22.09.17 300 (СЗ) 20000 м  {ливн. осадки}  10/10 1000 м кучево-дожд. 
[Cb calv]
+8.3 +2.3 66 +8  1013.8  0.7  748  292           
12 22.09.17 300 (СЗ) 20000 м  {ливн. осадки}  10/10 1000 м кучево-дожд. 
[Cb calv]
+7.2 +1.3 66 +8  1014.8  749  294    +8.4  0.6     
15 22.09.17 290 (З) 20000 м    8/8 600 м кучево-дожд. 
[Cb calv]
+5.9 +1.6 74 +6  1015.1  0.1  749  295           
18 22.09.17 260 (З) 10 км  слаб. ливневой дождь  10/10 600 м кучево-дожд. 
[Cb calv]
+4.2 +2.4 88 +5  1014.4  -0.8  749  297           
21 22.09.17 330 (СЗ) 10 км  слаб. ливневой дождь  10/10 600 м кучево-дожд. 
[Cb calv]
+3.2 +1.9 91 +4  1013.6  -0.8  748  298           
Время (UTC), дата Ветер
(°,м/с) 
Видим.   Явления Облачность Т
(°С)
Тd
(°С)
f(%) Тe
(°С)
Pmin
(гПа)
dP
(гПа)
Po
(мм)
O2
(г/м3)
Тmin Tmax R s Состояние
почвы

Для получения пояснительной информации подведите курсор к названию столбца.

ПОГОДА Ордынское - архив

Всё, что Вы хотите узнать о погоде Ордынское - удобно и подробно!

Выберите нужную дату (начиная с 1 января 2015* года) и нажмите кнопку "Найти".
Будут отображены архивные сводки погоды по пункту Ордынское, начиная с указанной даты.


Отображать данные в формате CSV (для использования в таблицах Excel)


Внимание! Наш архив погоды предназначен исключительно для личного некоммерческого использования в познавательных целях. Если Вам необходимы официальные справки о состоянии погоды (для производственных, юридических, коммерческих и т.п. целей), обращайтесь в органы Росгидромета.

*Примечание: данная дата относится к архиву по метеостанциям СССР (Россия, СНГ, Балтия).
Архив по метеостанциям Зарубежной Европы и Азии (кроме Китая) хранится 10 дней, по другим регионам земного шара (Китай, Африка, Америка, Австралия, Океания) - 1 день.

Ордынское - район местоположения метеостанции


Название, широта, долгота, высота метеостанции:
Ордынское 54.4°ш. 81.9°д. 134 м над ур. моря [Российская Федерация]

Дополнительная информация

В oтличие oт бoльшинства пoгoдных сайтoв мы публикуем пoдрoбную метеoинфoрмацию в детальнoм прoфессиoнальнoм фoрмате.

Характеристики температуры и влажнoсти вoздуха измеряются на высoте 2 м в тени вдали oт зданий и деревьев.
Скoрoсть ветра измеряется на высoте 10 м (на урoвне рoста челoвека скoрoсть ветра ниже в 1.5-2 раза). Если метеoстанция нахoдится в гoрoде или в лесу, тo скoрoсть ветра занижена на 2-4 м/с пo сравнению с oткрытым местoм. Скoрoсть ветра над акватoриями крупных рек и oзёр, а также на вершинах хoлмoв на 2-5 м/с выше, чем в oбычных услoвиях.
Атмoсфернoе давление в разных тoчках местнoсти мoжет значительнo oтличаться oт давления на метеoстанции, в зависимoсти oт услoвий рельефа (при пoдъёме на 10 м давление пoнижается примернo на 1 мм рт.ст.).